Torna al catalogo

COSMOS 2612

AttivoMilitareSSO
NORAD 68762·PAYLOAD·🇷🇺 Russia

Lanciato Apr 16, 2026 da Plesetsk Cosmodrome

Loading…

Prossimi Passaggi (prossime 24 ore)

TLE

AggiornatoSource: Space-Track

Epoca: Sep 14, 2026, 17:56 UTC

1 68762U 26083H   26257.74757185  .00002066  00000-0  14089-3 0  9993
2 68762  97.8669  37.7302 0014161 105.1755 255.1039 15.07341476 22697

Traccia COSMOS 2612 in tempo reale con AllMySat

Download on the App Store